sat.trackr.live / text

‹ back to catalog

STARLINK-37552

NORAD 69513 · 2026-133F

PAYLOAD ACTIVE UNKNOWN

§ Identity

Operator
Country
US
Launch date
2026-06-12
Launch site
AFETR
Launch vehicle
Mass (kg)
RCS (m²)

Purposes: comms

External: N2YO · Heavens-Above · Gunter

§ Orbital elements

Epoch: 2026-09-19T12:48:55.084032Z

Period
93.85 min
Inclination
53.1563°
Eccentricity
0.0001574
Mean motion
15.34400458 rev/d
Perigee alt
461.6 km
Apogee alt
463.8 km
Semi-major
6,840.8 km
B*
8.3412e-4
RAAN
234.3958°
Arg perigee
83.4356°
Mean anomaly
276.6826°
Rev number
1,661

§ Raw data

STARLINK-375521 69513U 26133F   26262.53397088  .00027911  00000+0  83412-3 0  99902 69513  53.1563 234.3958 0001574  83.4356 276.6826 15.34400458 16614

JSON: /api/v1/satellites/69513 · /tle

For live sub-satellite position, see the globe view (requires WebGL).

§ Visibility from observer

Set your observer location to see the next 7 days of passes ≥ 10°. The values pass through the URL so the page stays shareable.

No JS? Fill the form by hand. The geolocation button needs JavaScript.